GFSNW_850_temp_057.txt.gz
Temp
-1 -1 -1 0 0 1 1 1 2 2 2 1 2 2 4 6 6 7 8 8 8 9 9 10 12 12 13 14 13 13 13 12 13 14 16 17 16 15 15 13 14 11 9 14
-0 -1 -0 -0 0 0 1 1 0 1 2 2 2 3 4 5 6 6 7 7 8 9 9 9 9 10 12 13 13 13 13 12 12 13 14 15 15 15 15 14 11 11 12 13
-1 -1 -1 -0 -0 -0 0 0 1 1 1 2 4 2 3 4 5 5 5 6 6 8 7 8 8 9 11 12 12 13 11 12 12 12 14 15 15 16 16 15 11 13 13 15
-1 -1 -1 -1 -1 -0 -0 -0 0 1 2 2 3 4 4 3 4 5 6 5 6 6 5 7 7 9 10 11 12 12 10 10 10 13 15 16 16 15 15 14 15 14 15 13
-1 -1 -1 -1 -1 -0 -0 -0 0 1 2 3 3 4 4 4 4 5 5 4 5 6 5 6 6 7 8 9 11 11 10 9 8 10 14 15 15 16 16 15 15 14 15 14
-1 -1 -1 -1 -0 -0 0 0 1 2 2 2 2 3 4 4 5 5 5 5 5 4 6 7 8 9 8 8 9 10 9 8 8 8 10 13 12 14 15 15 15 15 14 14
-1 -1 -1 -1 -0 -0 0 0 1 1 2 3 3 4 4 4 4 4 5 5 5 6 7 7 8 7 7 8 8 9 8 8 7 8 8 9 13 15 16 15 15 15 16 16
-1 -1 -1 -0 -0 -0 -0 0 1 2 2 3 3 4 4 4 4 5 5 5 7 7 6 5 6 3 7 7 7 8 8 7 6 8 8 9 13 14 15 14 15 15 15 15
-0 -0 -0 -0 -0 -0 -0 -0 0 1 2 2 3 4 4 2 3 4 4 5 6 6 4 4 5 4 6 8 8 8 7 7 7 6 8 9 10 13 15 15 13 15 15 15
-0 -0 -0 -1 -0 -0 0 0 0 1 1 2 3 4 3 5 3 2 3 4 4 5 2 1 3 4 7 6 6 6 7 6 7 7 7 7 10 11 12 11 13 14 16 17
-1 -0 -0 -0 -1 -1 -0 -0 0 1 0 1 2 3 4 4 4 2 5 5 4 2 2 2 3 1 4 6 7 7 6 6 7 6 7 7 9 9 9 10 13 14 14 13
-0 -0 -0 -0 -0 -1 -1 -1 -0 0 0 1 3 3 4 5 5 5 5 6 5 4 2 1 2 1 -1 5 4 7 6 6 5 6 7 9 11 9 9 9 9 14 15 15
0 0 -0 -0 -0 -0 -1 -1 -0 -0 -0 0 1 2 3 4 5 5 6 6 8 7 8 2 3 4 2 2 4 7 7 7 7 7 9 9 11 13 14 12 11 15 15 15
1 0 0 0 0 -0 -1 -1 -1 -1 -0 -0 1 3 3 3 4 5 5 7 7 8 7 4 2 1 5 2 6 4 6 7 7 7 9 10 11 11 13 12 14 14 14 15
0 0 0 0 0 -0 -0 -0 -0 -0 2 0 1 3 4 5 4 4 5 5 7 7 4 2 3 3 4 3 4 4 5 5 5 4 6 5 8 9 11 12 12 13 13 14
0 -0 0 0 -0 -1 -1 -1 -1 -0 2 2 0 2 3 3 3 4 3 5 6 7 7 4 6 6 5 3 3 3 2 2 3 4 6 4 6 7 9 9 9 10 11 9
0 0 0 0 0 -0 -0 1 1 0 1 2 1 2 2 3 3 2 2 4 5 6 6 4 4 5 6 2 2 1 1 1 3 3 4 5 5 3 5 7 8 9 9 10
0 0 0 -0 -0 -1 0 2 2 1 2 1 1 2 2 3 2 3 4 4 5 5 5 4 3 5 4 2 -1 -1 -1 -1 2 2 1 1 4 5 6 5 7 8 7 7
-0 0 -0 -1 -0 0 0 0 0 1 1 0 -0 0 3 2 2 3 4 4 0 2 1 1 4 0 -0 -2 -3 -3 -3 -3 -2 0 1 1 4 3 3 2 4 3 1 2
-1 -1 -0 -0 0 0 0 0 0 0 0 1 0 1 2 3 1 1 1 1 1 3 2 3 -2 -2 -4 -5 -5 -5 -5 -3 -2 -2 -0 -1 -1 -1 -1 -1 -1 -1 -3 -3
1 0 -0 -0 0 1 0 -0 -0 -0 -0 1 1 1 1 2 0 1 1 2 2 3 2 2 -1 -3 -4 -6 -6 -6 -6 -5 -4 -4 -3 -4 -3 -4 -5 -4 -3 -4 -4 -3
1 0 -0 -0 -0 0 -1 -1 -2 0 1 -1 0 0 1 1 2 -0 1 2 1 3 -2 -2 -3 -4 -6 -6 -7 -7 -7 -7 -6 -6 -6 -6 -5 -6 -6 -6 -7 -5 -6 -7
2 2 0 0 -3 -5 -5 -2 -1 -1 -2 -2 -0 1 1 1 0 -0 1 2 1 -2 -3 -5 -5 -6 -7 -7 -8 -8 -8 -8 -8 -8 -8 -8 -8 -8 -7 -8 -8 -7 -7 -8
-1 -3 -7 -7 -8 -6 -6 -6 -7 -4 -3 -3 -1 -0 0 -0 -0 -1 1 -3 -3 -6 -7 -6 -7 -7 -8 -8 -9 -9 -9 -9 -9 -9 -9 -9 -9 -9 -8 -8 -8 -8 -8 -8
-5 -5 -7 -7 -7 -6 -6 -5 -4 -4 -4 -2 -1 -1 -1 -4 -4 -5 -4 -6 -7 -7 -9 -9 -9 -8 -9 -9 -9 -9 -10 -10 -10 -10 -9 -9 -9 -9 -9 -9 -9 -9 -9 -9
-5 -7 -8 -7 -8 -8 -7 -6 -6 -5 -3 -2 -2 -2 -3 -5 -6 -6 -7 -6 -8 -9 -9 -9 -9 -9 -9 -9 -9 -10 -10 -10 -10 -10 -10 -9 -9 -9 -10 -9 -9 -10 -10 -10
-6 -8 -8 -8 -8 -8 -8 -7 -7 -5 -4 -5 -5 -5 -4 -5 -6 -8 -8 -9 -9 -10 -11 -10 -10 -10 -10 -9 -9 -9 -9 -9 -9 -9 -9 -10 -10 -10 -10 -10 -11 -11 -11 -11

GFSNW_850_temp_063.txt.gz
Temp
-2 -2 -2 -2 -1 -1 -2 -2 -0 1 1 1 1 2 2 4 5 6 6 7 7 7 8 8 9 9 10 9 11 12 13 12 12 14 15 15 16 16 16 15 14 12 13 17
-2 -2 -2 -2 -1 -1 -2 -1 -0 1 1 1 1 2 2 4 5 6 6 6 6 7 7 8 8 8 10 9 11 11 12 12 12 13 14 14 15 15 15 13 12 15 14 16
-2 -2 -2 -2 -1 -1 -2 -1 -0 -0 0 1 2 2 2 3 3 4 5 5 6 6 6 8 8 8 9 9 10 11 11 11 11 12 12 12 13 14 15 16 13 14 14 16
-2 -2 -2 -2 -1 -1 -2 -1 -1 0 0 0 1 3 3 3 4 4 4 5 5 6 6 6 7 8 8 9 9 10 10 10 10 11 11 11 12 13 14 14 15 15 16 15
-2 -2 -2 -2 -1 -1 -2 -1 -0 -0 1 1 1 1 3 4 4 5 4 4 5 5 5 6 6 6 7 7 8 8 8 10 9 10 11 12 12 13 13 14 14 14 15 15
-2 -2 -2 -2 -1 -2 -2 -1 -1 -0 2 1 1 2 3 4 5 4 5 5 4 4 5 5 5 5 6 6 6 7 7 8 9 10 9 11 11 12 13 13 14 14 14 15
-2 -2 -2 -2 -2 -2 -2 -1 -1 -0 1 2 2 3 3 4 5 4 4 5 4 5 5 5 6 4 5 5 6 7 7 7 7 9 8 10 12 12 12 13 13 13 13 13
-2 -2 -2 -2 -2 -2 -2 -1 -1 -0 1 2 2 3 3 4 4 4 4 4 3 4 4 4 5 5 5 5 5 6 7 7 7 8 10 10 13 12 12 12 13 10 11 11
-2 -2 -2 -2 -2 -1 -1 -1 -1 -0 1 2 2 2 3 3 2 2 3 3 2 3 2 3 4 5 6 7 7 6 6 7 7 7 8 9 11 11 10 11 12 10 10 10
-1 -1 -1 -1 -1 -1 -1 -1 -1 -1 -1 2 2 3 2 3 3 3 3 3 2 3 2 4 4 5 6 6 6 7 6 6 6 7 8 9 10 10 10 12 12 11 9 10
-1 -1 -1 -1 -1 -1 -1 -1 -1 -1 -1 1 2 3 4 3 3 3 3 2 2 2 3 3 4 4 6 6 7 8 7 7 7 8 7 7 9 10 11 11 10 10 10 10
-1 -1 -1 -1 -1 -1 -1 -1 -1 -0 -0 -0 1 2 4 4 5 4 3 4 3 3 3 3 4 4 3 6 7 6 8 8 8 8 9 8 8 8 8 7 7 7 7 9
-0 -1 -1 -1 -1 -1 -1 -1 -0 -1 -1 -1 -0 1 2 3 4 4 3 4 5 4 5 3 3 5 4 5 6 7 7 6 7 7 9 8 8 7 6 6 5 5 7 7
-0 -0 -1 -1 -1 -1 -1 -1 -0 -1 -1 0 1 2 2 3 3 2 3 4 4 4 5 3 3 5 4 5 6 6 7 6 7 7 8 7 6 4 4 6 6 6 7 6
0 -0 -0 -0 -1 -1 -1 -1 -1 -0 1 0 0 0 2 3 2 3 3 3 3 4 4 2 4 3 4 3 4 6 5 6 6 7 3 3 4 4 3 3 4 3 4 7
0 -0 -0 -0 -1 -1 -2 -1 -1 -1 -0 0 1 1 1 2 2 3 3 3 3 4 4 3 4 5 6 4 4 4 3 2 1 2 1 3 3 3 2 1 1 1 1 3
-0 -0 -0 -1 -1 -1 -1 0 1 -0 -0 0 1 1 1 1 1 2 2 3 3 3 3 4 4 5 4 3 5 1 -1 -1 1 0 1 2 1 1 1 0 -0 -1 0 2
-0 -0 -0 -0 -1 -1 -0 0 1 -0 -0 -0 1 1 2 1 1 1 2 2 2 2 2 1 4 4 3 2 -1 -2 -3 -3 -1 -3 -2 -2 -0 -0 -0 -1 -1 -2 -2 -1
-0 0 -0 -1 -1 -1 -0 0 -1 -1 -0 0 -0 2 2 2 2 2 2 2 2 1 2 1 3 2 3 -3 -4 -4 -5 -5 -4 -4 -3 -2 -2 -2 -2 -3 -4 -5 -6 -5
-1 -1 -0 -1 -1 -0 -1 -1 -1 -0 -0 0 -0 0 2 2 1 1 1 1 1 3 2 -0 -0 -4 -5 -6 -6 -7 -6 -6 -6 -5 -4 -4 -5 -5 -5 -6 -6 -7 -8 -8
-0 -0 -1 -1 -1 -0 -0 -1 -1 -1 -1 -1 0 -0 1 0 1 1 1 1 1 2 1 2 -1 -3 -5 -7 -7 -8 -8 -8 -8 -7 -7 -6 -6 -7 -7 -8 -8 -9 -9 -10
0 -0 -1 -1 -1 -1 -1 -0 -1 0 1 -1 0 -0 0 -0 1 1 1 2 1 2 -2 -2 -4 -5 -7 -7 -8 -9 -9 -9 -9 -8 -8 -8 -8 -8 -9 -9 -9 -10 -10 -10
2 1 -2 -2 -5 -5 -3 -2 -2 -2 -3 -3 -1 0 -0 -0 1 1 1 2 -1 -3 -4 -5 -6 -7 -8 -9 -9 -10 -10 -10 -10 -10 -10 -9 -10 -10 -10 -10 -10 -10 -10 -10
-1 -4 -7 -8 -8 -6 -6 -7 -6 -5 -4 -4 -1 -1 -1 -2 -1 -2 -1 -4 -4 -5 -5 -7 -7 -9 -9 -10 -10 -10 -10 -10 -10 -10 -11 -11 -10 -11 -11 -10 -10 -10 -10 -10
-6 -6 -8 -8 -8 -8 -8 -7 -6 -6 -4 -2 -2 -3 -3 -6 -6 -5 -4 -5 -7 -6 -7 -8 -9 -10 -10 -10 -11 -11 -11 -11 -11 -11 -11 -11 -11 -10 -11 -11 -10 -10 -11 -11
-7 -9 -9 -9 -9 -9 -9 -8 -7 -6 -4 -3 -3 -5 -6 -7 -7 -7 -8 -6 -7 -9 -9 -10 -10 -10 -11 -11 -11 -11 -11 -11 -11 -11 -11 -11 -11 -11 -11 -11 -11 -11 -11 -11
-8 -10 -9 -10 -10 -10 -9 -9 -8 -6 -5 -6 -5 -6 -5 -6 -8 -9 -9 -10 -11 -12 -11 -11 -11 -11 -11 -11 -11 -11 -11 -11 -11 -11 -11 -11 -11 -11 -11 -11 -12 -12 -12 -12

GFSNW_850_temp_066.txt.gz
Temp
-2 -2 -2 -2 -1 -1 -2 -1 1 1 1 1 3 2 5 5 8 8 9 8 9 9 9 10 10 8 9 9 10 13 14 15 15 16 18 19 20 19 19 17 17 18 18 20
-2 -2 -2 -2 -1 -1 -2 -1 1 1 1 3 3 3 5 5 7 8 9 8 8 9 9 9 11 6 8 9 9 11 13 14 14 15 16 17 17 18 18 19 18 17 16 19
-3 -2 -2 -2 -1 -1 -2 -1 0 1 0 1 4 4 5 5 6 7 8 8 8 8 9 10 9 10 7 7 9 10 12 14 14 15 16 16 16 17 18 17 16 17 18 19
-2 -2 -2 -2 -1 -1 -2 -2 -0 3 2 2 3 3 5 4 6 6 7 7 7 8 7 8 9 10 10 8 9 10 11 10 12 13 13 14 14 15 16 17 18 17 18 19
-3 -2 -2 -2 -2 -1 -2 -2 -1 0 3 0 2 2 3 4 7 7 7 7 8 8 7 8 8 8 9 9 9 10 11 9 11 12 13 14 14 15 16 17 17 17 18 18
-3 -2 -2 -2 -2 -2 -2 -2 -1 -1 3 4 3 3 4 4 5 7 7 7 6 6 7 7 7 7 7 8 8 8 9 8 10 11 13 13 13 15 16 16 17 17 16 17
-2 -2 -2 -2 -2 -2 -3 -2 -1 -1 1 3 4 5 3 3 5 6 6 6 5 6 5 5 6 7 7 8 8 8 9 9 10 10 10 10 14 15 16 16 15 16 16 15
-2 -2 -2 -2 -2 -2 -3 -2 -2 -1 1 3 4 5 5 5 3 6 5 5 3 2 3 6 7 7 7 8 8 9 9 9 9 10 11 13 15 14 15 15 13 14 15 15
-1 -1 -2 -2 -2 -2 -2 -2 -2 -1 1 4 4 5 5 4 6 4 3 1 1 1 5 6 6 7 8 9 8 9 9 9 10 9 10 11 14 13 13 14 14 14 14 14
-1 -1 -1 -1 -2 -1 -2 -2 -2 -2 -1 1 4 5 5 5 4 5 4 2 1 1 5 5 7 8 8 9 7 6 7 8 8 9 10 12 14 13 12 13 13 12 13 13
-1 -1 -1 -1 -2 -2 -2 -2 -1 -1 -1 1 1 3 4 5 3 3 3 2 2 3 4 6 7 7 9 9 10 9 8 8 8 9 9 9 11 13 13 11 11 11 11 11
-1 -1 -1 -1 -1 -1 -1 -1 -1 -1 -1 0 1 2 3 4 4 4 2 5 5 4 6 7 8 7 7 9 9 10 9 11 11 11 11 11 10 11 9 8 8 8 8 8
-0 -0 -1 -1 -1 -1 -1 -1 -1 -1 -1 -1 0 0 1 3 3 4 5 3 3 5 5 7 7 7 9 8 9 10 11 10 10 11 12 12 10 8 7 7 7 6 6 6
-0 -1 -1 -1 -1 -1 -1 -1 -1 -1 -1 1 2 1 1 2 3 3 4 3 3 3 3 5 6 7 8 9 9 9 11 10 11 11 12 10 8 7 5 5 5 4 4 3
-0 -0 -0 -1 -1 -1 -1 -1 -0 -1 1 2 3 1 2 2 1 2 2 2 2 2 3 4 6 7 8 9 8 9 10 10 10 10 5 5 6 5 3 3 3 2 2 1
0 -0 -1 -1 -1 -1 -2 -2 -1 -1 -0 0 1 2 2 1 2 2 2 2 2 2 2 3 5 7 7 6 8 9 6 4 3 6 3 3 4 2 2 2 1 0 -0 -1
-0 0 -0 -1 -1 -1 -1 0 -0 -1 -0 0 2 3 1 1 2 2 2 2 2 2 2 3 6 6 6 7 7 5 1 1 1 -0 0 4 1 0 -0 -1 -0 0 -1 -1
-0 -0 -0 -1 -1 -1 -0 1 -0 -0 -0 0 2 2 2 1 1 2 2 2 2 2 2 2 6 6 6 4 -1 -2 -2 -1 -0 -2 -2 -2 -1 -2 -2 -2 -3 -3 -3 -4
-0 -0 -0 -1 -1 -1 -0 -1 -1 -0 -0 1 2 3 3 1 2 1 2 2 2 1 2 3 3 4 2 -3 -3 -4 -5 -4 -4 -3 -2 -3 -3 -4 -4 -4 -5 -6 -6 -7
-1 -1 -1 -1 -1 0 -1 -1 -1 -1 -0 0 3 1 2 3 3 2 2 3 3 3 2 1 3 -2 -5 -5 -6 -6 -6 -6 -5 -4 -2 -4 -4 -5 -6 -7 -7 -7 -9 -9
-0 -1 -1 -1 -1 -0 -1 -1 0 1 2 1 2 2 2 1 4 2 2 3 3 4 3 3 2 -1 -4 -6 -6 -7 -7 -7 -7 -6 -7 -7 -7 -6 -7 -9 -9 -10 -10 -10
0 -1 -1 -1 -1 -1 1 1 0 2 3 -0 1 1 1 0 1 2 1 3 2 4 1 3 1 -4 -6 -6 -7 -8 -8 -8 -8 -9 -9 -9 -9 -9 -10 -10 -11 -10 -10 -10
1 1 -2 -1 -3 -1 2 1 1 1 -1 -2 -1 1 -0 -0 -0 1 3 2 1 -0 0 -1 -4 -6 -7 -7 -8 -9 -9 -9 -10 -10 -10 -11 -11 -11 -11 -11 -11 -11 -11 -11
-1 -2 -4 -3 -3 -3 -3 -2 -2 -3 -3 -3 -1 -1 0 -1 0 -1 1 -2 -0 0 -0 -3 -5 -8 -8 -9 -9 -10 -11 -11 -11 -12 -12 -11 -11 -11 -11 -11 -11 -11 -11 -11
-5 -4 -5 -5 -6 -6 -6 -6 -5 -5 -4 -2 -1 -1 0 -1 -1 -1 -1 -1 -2 -2 -2 -5 -7 -9 -10 -10 -10 -11 -11 -11 -11 -11 -11 -11 -11 -11 -11 -11 -11 -11 -11 -11
-7 -8 -5 -6 -5 -5 -6 -6 -4 -6 -4 -3 -1 -1 -1 -3 -2 -2 -3 -1 -2 -5 -6 -8 -9 -10 -11 -11 -11 -11 -11 -11 -11 -11 -11 -11 -11 -11 -12 -12 -12 -12 -12 -12
-7 -7 -8 -8 -7 -7 -7 -7 -6 -6 -3 -2 -1 -1 -4 -2 -3 -5 -5 -5 -6 -8 -9 -10 -10 -11 -11 -11 -11 -11 -11 -11 -11 -11 -11 -11 -12 -12 -12 -12 -13 -14 -13 -13

GFSNW_850_temp_069.txt.gz
Temp
-3 -2 -2 -2 -2 -2 -2 0 1 3 2 1 3 3 7 8 9 10 10 11 11 11 12 12 12 8 9 7 8 10 14 14 13 15 18 17 18 19 19 18 18 20 20 19
-2 -2 -2 -2 -2 -2 0 -0 2 2 1 3 4 6 7 8 9 10 10 10 11 12 11 10 12 10 8 7 7 9 8 12 12 13 15 19 17 18 19 19 19 15 17 20
-2 -3 -2 -2 -2 -2 -2 -1 1 3 1 2 5 6 6 7 8 9 9 10 11 11 10 11 11 11 9 8 7 7 9 11 12 14 15 18 17 19 20 19 17 18 18 20
-3 -3 -3 -2 -2 -2 -2 -1 1 3 3 4 5 6 6 7 8 8 9 9 10 9 8 9 10 11 12 11 7 8 10 8 11 15 14 16 17 18 19 19 19 18 19 19
-3 -3 -3 -2 -2 -2 -2 -1 1 3 4 5 5 6 6 6 8 9 8 9 10 10 10 10 10 11 11 10 10 8 8 8 7 12 15 15 16 17 17 18 18 18 18 18
-3 -3 -2 -2 -2 -3 -2 -2 -0 1 3 5 4 5 6 7 8 8 8 9 10 10 9 8 9 9 9 10 10 9 8 7 7 9 11 13 13 15 16 16 17 18 17 18
-3 -3 -2 -2 -2 -2 -2 -1 -0 0 2 4 6 6 4 6 7 6 6 9 8 7 6 7 8 8 9 9 9 10 9 8 8 8 9 9 13 17 17 16 16 17 17 17
-2 -2 -2 -2 -2 -2 -2 -1 -1 0 1 5 6 6 6 6 6 5 6 6 6 4 5 6 7 8 8 9 10 10 10 9 9 8 9 10 14 14 15 14 14 16 16 17
-2 -2 -2 -2 -2 -2 -2 -2 -1 -1 0 4 5 6 6 6 6 5 5 3 2 3 3 5 7 8 10 10 10 11 11 10 10 10 8 9 12 15 14 16 12 16 16 16
-1 -1 -1 -1 -2 -2 -2 -2 -2 -2 -1 1 2 5 6 6 7 5 6 3 2 2 4 5 7 9 11 9 8 9 9 9 9 9 11 13 15 15 14 12 10 14 14 14
-1 -1 -1 -1 -1 -2 -2 -1 -2 -2 -1 0 2 3 4 5 5 4 4 3 2 2 4 6 8 8 10 10 11 10 10 9 9 10 10 10 14 14 13 12 12 12 12 11
-1 -1 -1 -1 -1 -1 -2 -2 -2 -2 -2 -1 1 2 4 3 3 2 2 4 3 4 6 7 8 9 9 11 10 12 10 12 11 12 12 13 12 11 10 10 10 9 9 9
-1 -1 -1 -1 -1 -1 -2 -2 -2 -2 -2 -2 -0 2 2 2 3 3 3 4 5 5 5 4 7 7 10 9 10 11 12 12 12 12 13 11 11 10 8 9 8 8 7 7
0 -0 -0 -1 -1 -1 -1 -2 -2 -2 -1 -0 3 3 2 2 3 3 3 2 3 4 3 6 6 7 10 9 8 11 10 12 12 13 12 12 10 8 6 7 6 6 5 5
-0 0 -0 -1 -1 -1 -1 -2 -1 -1 1 3 4 4 3 3 2 2 2 2 3 2 3 5 6 8 9 11 10 10 12 11 11 10 8 9 9 6 4 5 4 4 3 3
0 -0 -0 -1 -1 -1 -1 -1 -1 -1 -0 0 2 4 3 2 3 3 2 2 2 2 2 5 7 8 8 8 9 9 8 6 6 7 5 5 5 2 2 2 1 1 1 -1
0 -0 -0 -1 -1 -1 -1 -0 -0 -1 -1 -0 2 4 3 4 4 3 3 2 2 2 2 4 7 7 7 8 8 2 3 4 3 2 3 4 2 1 -0 0 -0 -1 -1 -3
0 -0 -0 -1 -1 -1 -1 -0 1 -0 -0 -0 2 3 3 3 3 3 2 2 1 1 2 4 7 7 7 5 1 0 -0 2 2 0 1 -0 -1 -2 -2 -2 -2 -3 -4 -5
-0 -0 -0 -1 -1 -1 -0 -1 -0 -0 0 1 2 3 3 1 2 2 2 1 2 2 2 3 5 6 1 -2 -2 -3 -3 -3 -2 -1 0 -0 -2 -3 -4 -4 -4 -4 -5 -6
-0 -1 -1 -1 -1 -0 -1 -1 -1 -0 -0 1 3 3 3 3 3 2 2 2 4 3 3 2 4 -1 -3 -3 -3 -4 -5 -4 -4 -3 -2 -3 -3 -3 -5 -5 -6 -6 -7 -8
-1 -1 -1 -1 -1 -1 -1 -1 0 0 2 2 3 3 3 2 4 3 3 4 5 5 4 4 3 -1 -3 -4 -4 -5 -6 -5 -5 -5 -6 -6 -6 -6 -6 -7 -8 -9 -10 -10
0 -1 -1 -1 -1 -0 1 2 1 4 4 2 2 2 3 1 2 3 2 4 4 4 3 3 2 -3 -4 -5 -6 -7 -7 -7 -7 -8 -8 -8 -8 -8 -9 -9 -11 -11 -11 -11
0 1 -2 -1 -1 1 2 2 2 2 0 -1 1 2 1 1 1 2 3 3 3 2 3 1 -2 -4 -6 -7 -7 -8 -8 -9 -9 -9 -10 -10 -11 -11 -11 -12 -12 -12 -12 -12
-1 -1 -3 -0 -0 -1 -1 -0 -0 -3 -2 -1 1 1 2 0 1 1 2 -0 1 2 2 -0 -4 -7 -8 -8 -9 -9 -10 -10 -11 -11 -12 -12 -12 -12 -11 -11 -11 -11 -11 -12
-3 -1 -2 -3 -4 -4 -4 -4 -3 -3 -3 -1 1 1 2 0 0 1 1 0 1 1 -0 -3 -6 -8 -8 -9 -10 -10 -11 -11 -11 -12 -12 -12 -12 -12 -12 -12 -11 -11 -11 -12
-5 -5 -3 -4 -2 -3 -4 -3 -3 -4 -3 -1 0 0 0 -1 1 1 -0 3 1 -3 -4 -7 -8 -9 -10 -10 -10 -10 -11 -11 -11 -12 -12 -12 -12 -12 -12 -12 -12 -12 -12 -12
-5 -5 -6 -5 -5 -4 -5 -5 -5 -4 -2 0 2 1 -2 1 -0 -2 -2 -3 -5 -7 -7 -8 -9 -10 -10 -11 -11 -11 -11 -11 -12 -12 -12 -12 -12 -12 -13 -13 -14 -14 -14 -14

GFSNW_850_temp_075.txt.gz
Temp
-2 -2 -2 -2 -2 -2 -2 -2 -1 2 1 0 0 1 3 5 6 6 8 9 10 10 10 10 10 11 9 9 9 8 7 7 7 10 12 11 10 9 9 9 11 13 12 12
-2 -2 -2 -2 -2 -2 -2 -2 -2 0 2 0 1 2 3 4 5 6 8 8 10 10 9 9 10 10 9 9 8 7 7 7 7 10 12 13 10 10 10 9 10 10 11 13
-2 -2 -2 -2 -2 -2 -2 -2 -1 0 1 -0 1 2 3 4 6 6 7 8 9 9 9 10 9 10 9 9 8 7 7 7 7 8 8 7 7 9 11 10 10 11 12 15
-2 -3 -2 -2 -2 -3 -3 -2 -1 0 -3 -0 0 2 2 4 5 8 8 8 8 8 7 8 8 10 8 8 7 6 6 5 7 8 9 9 9 9 8 11 10 10 13 15
-3 -2 -2 -2 -3 -3 -3 -2 -1 1 -1 0 1 3 4 3 4 4 6 7 8 8 7 8 8 8 8 7 6 6 6 5 6 7 10 8 8 9 8 10 11 11 12 12
-3 -2 -2 -2 -2 -3 -2 -2 -1 -2 1 2 0 1 3 5 6 7 7 5 5 5 6 6 8 7 7 8 7 5 6 6 5 6 8 7 8 9 9 10 11 11 11 11
-2 -2 -3 -2 -2 -2 -3 -2 -1 -0 -2 0 2 4 4 2 4 5 7 6 5 5 6 7 7 8 8 7 6 7 7 6 5 5 7 9 9 12 11 10 11 12 12 13
-2 -2 -2 -2 -2 -2 -3 -2 -2 -1 -3 1 2 3 5 4 4 4 5 7 5 6 6 4 4 5 6 6 8 7 7 6 5 6 6 8 10 9 9 10 8 8 9 10
-2 -2 -2 -2 -2 -2 -2 -2 -2 -2 -2 -1 2 1 3 2 3 4 5 5 4 5 3 2 4 4 6 7 8 9 8 7 6 6 6 8 9 8 9 10 8 8 8 8
-1 -1 -1 -2 -2 -2 -2 -2 -2 -2 -2 -0 1 1 0 0 1 1 4 4 3 4 2 1 2 4 8 6 7 6 6 6 5 6 6 7 11 9 10 8 7 8 8 8
-1 -1 -1 -1 -2 -2 -2 -2 -2 -2 -2 -1 0 1 1 1 1 1 1 3 2 2 1 2 3 3 6 6 5 7 7 5 5 5 6 7 10 8 8 8 7 7 7 7
-1 -1 -1 -1 -1 -2 -2 -3 -2 -2 -2 -1 -0 -0 0 1 1 1 -0 1 1 4 3 3 3 4 4 7 5 7 7 7 6 7 7 9 8 7 8 7 7 6 6 6
-1 -1 -1 -1 -1 -1 -2 -2 -2 -2 -2 -2 -1 1 2 2 2 2 0 1 1 2 2 3 3 4 4 4 6 6 8 10 8 9 8 8 7 6 6 6 6 5 4 4
-1 -1 -1 -1 -1 -1 -1 -1 -2 -2 -2 -2 -0 2 2 3 3 3 2 2 1 1 2 1 2 3 4 4 5 4 3 7 6 3 2 3 3 5 4 4 4 3 3 2
-0 -1 -1 -1 -1 -1 -1 -1 -1 -2 -0 -1 -0 1 3 3 3 4 3 3 1 2 2 3 3 4 4 3 4 2 2 2 3 4 2 1 1 2 2 2 1 1 0 -1
-0 -0 -0 -1 -1 -1 -1 -2 -2 -2 -1 -1 -1 1 2 4 3 4 3 3 3 2 2 3 4 5 4 3 3 -0 -0 1 1 2 2 1 0 0 0 -0 -1 -2 -2 -3
-0 -0 -0 -0 -1 -1 -1 -1 0 -1 -2 -2 -1 0 3 4 4 3 3 3 2 1 1 2 3 4 3 2 1 -1 -2 -1 1 1 2 -0 -1 -2 -1 -1 -2 -3 -5 -5
0 -0 -0 -0 -1 -1 -1 -0 1 -1 -1 -1 -0 1 1 3 3 2 3 2 2 1 2 3 3 4 0 -1 -2 -3 -3 -1 -1 -1 -0 -1 -2 -2 -3 -3 -4 -5 -6 -6
-0 -0 -0 -1 -1 -1 -1 -0 -1 -2 -1 -1 -0 1 2 3 3 1 1 1 1 1 1 2 3 -0 -2 -3 -4 -4 -4 -3 -3 -2 -3 -3 -4 -4 -5 -5 -6 -7 -8 -8
-0 -0 -1 -1 -1 -1 -1 -1 -1 -1 -0 0 1 2 1 2 2 1 1 1 1 2 2 3 -1 -3 -3 -4 -5 -6 -6 -6 -5 -5 -5 -5 -5 -7 -7 -8 -8 -8 -8 -9
-1 -1 -1 -1 -1 -1 -0 -1 -1 -1 -0 1 2 1 1 2 1 1 2 2 1 2 2 2 0 -2 -4 -6 -7 -7 -7 -7 -7 -8 -8 -7 -7 -8 -9 -10 -10 -10 -10 -10
-0 -1 -1 -1 -1 -1 -0 0 -0 0 0 2 1 1 1 1 1 1 2 2 1 3 1 2 -2 -4 -6 -7 -8 -8 -8 -9 -9 -9 -9 -9 -9 -10 -10 -11 -12 -12 -12 -12
-0 0 -1 -0 -1 -0 -1 -0 -1 0 0 1 2 1 1 1 1 1 1 2 1 1 1 -4 -5 -6 -7 -8 -9 -9 -10 -10 -10 -11 -11 -11 -11 -11 -11 -12 -12 -12 -12 -12
-0 -0 -5 -1 -0 -1 -2 -1 -1 -1 -0 1 2 1 1 2 0 0 2 -0 0 1 -2 -4 -7 -8 -8 -9 -9 -10 -11 -11 -11 -11 -11 -11 -11 -11 -11 -11 -12 -11 -12 -12
-2 -1 -3 -4 -3 -3 -3 -2 -2 -2 -1 1 2 1 2 0 0 1 -0 1 0 -3 -7 -8 -8 -8 -9 -9 -10 -10 -11 -11 -12 -12 -11 -11 -11 -11 -12 -12 -12 -11 -12 -12
-4 -4 -3 -3 -3 -3 -3 -2 -2 -2 -1 1 2 1 1 0 0 -1 -3 -1 -5 -7 -9 -9 -9 -9 -9 -10 -10 -11 -11 -11 -12 -12 -12 -12 -11 -11 -12 -12 -12 -12 -12 -12
-4 -5 -5 -4 -4 -4 -4 -4 -3 -2 -1 0 -1 -1 -1 -1 -3 -5 -6 -7 -7 -8 -8 -9 -9 -10 -10 -10 -10 -11 -11 -11 -11 -12 -11 -11 -12 -12 -12 -12 -12 -13 -13 -13

GFSNW_850_temp_078.txt.gz
Temp
-2 -2 -2 -2 -2 -2 -2 -3 -2 -0 0 -1 -0 -0 2 3 4 5 5 6 6 8 8 8 9 10 9 9 8 8 7 7 6 8 11 10 9 8 9 9 9 11 10 11
-2 -2 -2 -2 -2 -3 -3 -3 -2 -0 0 -1 -1 0 2 3 3 4 5 5 7 7 7 8 9 8 8 8 7 6 6 7 7 8 10 10 9 9 9 9 9 10 10 12
-3 -2 -2 -2 -2 -3 -3 -3 -3 -1 -0 0 -0 -0 1 2 4 4 4 5 6 6 7 8 8 8 8 8 7 7 7 6 6 6 8 7 7 7 6 8 8 10 10 12
-3 -3 -2 -2 -2 -3 -3 -3 -4 -1 -1 -1 0 0 0 1 2 5 5 6 6 6 6 7 7 9 6 7 6 6 5 5 6 7 8 8 9 8 9 8 8 9 12 12
-3 -3 -3 -3 -2 -3 -3 -3 -3 -0 -1 -1 -1 1 1 1 3 2 4 5 6 5 6 6 6 7 7 7 5 6 5 4 6 6 8 9 8 8 9 10 8 8 10 11
-3 -3 -3 -3 -2 -3 -3 -3 -3 -2 -1 0 -1 -0 -0 2 1 2 3 3 3 4 5 5 6 6 7 7 5 5 4 4 4 4 7 7 7 8 9 10 10 10 9 12
-2 -2 -2 -2 -2 -3 -3 -3 -2 -2 -2 0 1 2 3 1 1 1 3 3 4 5 6 7 7 7 7 6 6 5 4 4 4 4 5 7 9 9 9 9 8 11 11 11
-2 -2 -2 -2 -2 -2 -3 -3 -3 -2 -3 -0 1 2 2 3 3 3 4 5 5 5 5 4 4 4 5 5 6 5 5 4 3 4 5 7 9 7 8 6 6 9 9 9
-2 -2 -2 -2 -2 -2 -3 -3 -3 -3 -2 -1 0 0 1 -0 0 1 4 4 5 5 1 2 3 3 5 6 6 7 6 5 4 4 5 6 7 9 9 8 7 7 8 8
-2 -2 -2 -2 -2 -2 -2 -3 -3 -3 -3 -1 -1 -1 -0 1 0 1 1 0 3 3 0 0 1 3 6 5 6 6 3 3 5 5 5 7 9 9 8 7 7 7 6 6
-2 -2 -1 -1 -1 -2 -2 -3 -2 -2 -3 -2 -1 -0 -0 -0 0 -0 0 1 2 2 0 1 2 1 4 4 6 6 5 4 4 4 5 6 9 8 7 6 5 5 5 5
-2 -1 -1 -1 -1 -2 -2 -3 -2 -2 -3 -2 -1 -1 0 1 0 0 -0 -0 0 0 2 1 2 2 2 5 5 5 5 6 4 6 6 7 6 5 5 5 4 4 4 4
-1 -1 -1 -1 -1 -1 -2 -2 -3 -3 -3 -2 -2 0 2 1 1 1 1 0 0 0 1 2 3 3 3 4 4 5 3 5 7 7 3 4 4 4 3 5 3 2 3 2
-1 -1 -1 -1 -1 -1 -2 -2 -2 -2 -2 -3 -1 1 1 2 2 2 1 1 1 0 1 1 2 2 2 3 2 2 1 2 4 3 1 1 0 0 1 1 2 2 1 0
-0 -1 -1 -1 -1 -1 -1 -1 -2 -2 -1 -3 -1 1 3 3 2 2 2 2 2 1 1 2 3 3 3 2 2 0 -1 0 3 3 0 0 -0 -1 0 0 -2 -1 -1 -1
-0 -1 -1 -1 -1 -1 -1 -1 -2 -2 -2 -1 -3 1 3 3 3 3 3 2 2 2 2 2 2 3 2 3 1 -2 -2 -1 -0 -1 -1 -1 -1 -1 -0 -1 -3 -3 -4 -5
0 -0 -0 -1 -1 -1 -1 -1 -0 -1 -2 -2 -2 -1 2 2 3 3 2 2 2 2 2 2 2 4 2 -0 -1 -3 -3 -3 -2 -1 -1 -2 -2 -3 -3 -4 -4 -4 -5 -6
0 -0 -0 -0 -1 -1 -1 -1 -0 -2 -2 -2 -2 -2 0 2 2 2 3 2 2 2 2 2 2 -0 -1 -2 -4 -5 -4 -4 -3 -3 -2 -3 -3 -3 -4 -5 -5 -5 -7 -7
0 -1 -0 -1 -1 -1 -1 -0 -1 -2 -1 -2 -1 -0 -0 1 1 1 1 1 1 1 1 1 1 -2 -3 -4 -5 -6 -6 -5 -5 -4 -4 -5 -5 -5 -6 -6 -7 -7 -9 -9
-1 -0 -1 -1 -1 -1 -1 -1 -1 -1 -1 -1 -0 1 0 1 1 0 0 1 1 2 1 -0 -2 -4 -6 -6 -7 -7 -7 -7 -6 -6 -6 -6 -7 -7 -7 -8 -8 -8 -9 -9
-0 -1 -1 -1 -1 -0 -1 -2 -1 -2 -1 -2 0 -0 1 1 1 0 1 1 1 2 1 1 -1 -3 -6 -7 -8 -8 -8 -8 -8 -8 -8 -8 -8 -10 -10 -11 -11 -10 -10 -10
-1 -0 -1 -1 -1 -1 -0 -1 -1 -1 -0 -0 0 0 1 1 1 0 1 1 1 2 1 -1 -5 -5 -8 -8 -8 -9 -9 -9 -9 -9 -10 -10 -10 -11 -12 -12 -11 -11 -11 -11
-1 -0 -1 -1 -1 -0 -2 0 -0 0 0 1 1 1 1 -0 0 1 1 0 1 -0 -4 -5 -6 -7 -8 -9 -9 -10 -10 -10 -11 -11 -11 -10 -11 -11 -11 -11 -11 -11 -11 -11
-0 -1 -4 -4 -1 -2 -5 -3 -1 -1 -0 1 1 0 0 0 -0 -0 0 -1 -1 -1 -5 -5 -8 -9 -9 -9 -10 -10 -11 -11 -11 -11 -11 -11 -11 -11 -12 -11 -12 -11 -11 -12
-2 -2 -5 -7 -4 -3 -3 -2 -2 -2 0 1 1 0 1 -2 -1 -1 -0 -1 -2 -4 -5 -9 -9 -9 -9 -10 -10 -11 -11 -11 -11 -11 -11 -11 -11 -11 -12 -12 -12 -12 -12 -12
-3 -4 -4 -4 -4 -5 -3 -2 -2 -2 0 1 2 -0 -0 -1 -1 -3 -4 -2 -5 -9 -12 -9 -9 -9 -10 -10 -11 -11 -11 -11 -11 -11 -11 -11 -11 -11 -11 -12 -12 -12 -13 -13
-4 -6 -5 -5 -5 -5 -4 -4 -3 -2 -1 -0 -1 0 -0 -2 -6 -7 -8 -10 -11 -10 -9 -9 -9 -10 -10 -10 -11 -11 -11 -11 -11 -11 -11 -11 -12 -12 -12 -12 -12 -13 -13 -14

GFSNW_850_temp_084.txt.gz
Temp
-2 -2 -2 -2 -2 -2 -2 -2 -5 -2 -2 -3 -2 -5 0 1 1 2 2 2 3 3 3 3 3 4 6 6 7 6 6 7 6 7 8 8 9 8 9 8 8 8 8 8
-2 -2 -2 -2 -2 -3 -3 -3 -3 -2 -2 -7 -5 -1 -0 1 0 1 2 2 3 2 3 2 3 3 5 6 6 6 6 6 6 8 8 7 7 8 7 6 7 8 9 9
-3 -2 -2 -2 -2 -3 -3 -3 -4 -2 -3 -3 -4 -2 -1 -0 1 1 1 2 2 3 3 3 2 3 4 6 6 6 7 5 6 7 6 5 4 7 8 7 6 6 8 8
-3 -3 -3 -3 -3 -3 -3 -3 -5 -4 -5 -3 -4 -2 -2 -1 -1 1 2 2 2 2 2 3 3 3 4 6 6 5 5 5 5 5 5 6 6 6 6 6 7 7 8 8
-3 -3 -3 -3 -3 -3 -3 -3 -3 -3 -3 -2 -3 -1 -1 -1 -0 -0 1 1 2 3 2 4 3 3 6 6 5 5 4 4 4 5 6 6 6 7 6 7 7 7 8 8
-3 -3 -2 -3 -3 -3 -4 -4 -4 -3 -2 -2 -4 -2 -1 -1 -1 1 1 2 1 2 4 4 5 5 5 5 5 4 4 3 2 2 5 4 5 6 7 7 8 8 8 9
-3 -3 -3 -2 -3 -3 -3 -3 -3 -4 -4 -3 -1 0 1 -1 -1 -1 1 1 2 3 3 4 5 4 4 4 4 4 4 4 3 3 3 2 7 7 7 6 7 8 8 8
-3 -3 -2 -2 -2 -2 -3 -3 -3 -4 -4 -2 -1 -0 -0 -0 -1 -1 -0 -1 1 2 2 3 4 4 4 4 3 3 3 3 3 2 2 5 6 6 6 4 6 7 5 7
-3 -3 -2 -2 -2 -2 -2 -3 -3 -4 -4 -3 -2 -2 -1 -1 -1 0 1 0 1 2 1 2 3 3 5 5 5 3 2 3 3 2 3 2 6 7 7 6 5 3 6 7
-3 -3 -2 -2 -2 -2 -2 -2 -2 -3 -4 -2 -2 -2 -2 -1 -1 -1 -1 -0 1 2 -0 0 1 3 4 4 5 4 3 3 4 3 4 4 5 5 7 6 5 1 1 1
-3 -3 -2 -2 -2 -2 -2 -2 -2 -3 -4 -2 -2 -2 -2 -2 -2 -3 -0 -1 -0 0 1 2 1 1 3 3 4 5 4 3 4 4 4 4 4 6 6 4 1 -0 -1 -1
-3 -2 -2 -2 -2 -2 -2 -2 -2 -3 -3 -3 -2 -2 -1 -1 -1 -2 -1 -2 -1 -1 1 1 3 2 1 1 2 3 3 3 3 4 3 2 0 1 -0 1 -0 -0 -1 -1
-2 -2 -2 -2 -2 -2 -2 -3 -2 -3 -3 -3 -3 -0 0 -0 -0 -0 -1 -1 0 -1 -1 -0 1 2 2 3 1 1 -0 -0 1 3 1 -0 -1 -2 -2 -3 -3 -3 -2 -3
-3 -2 -1 -2 -1 -1 -2 -2 -2 -2 -3 -4 -2 -0 1 1 1 1 -0 -1 -0 -0 -0 0 1 1 2 2 0 -2 -1 -1 -1 2 1 -0 -3 -3 -3 -4 -3 -3 -3 -4
-2 -2 -1 -1 -1 -2 -2 -2 -2 -2 -2 -3 -2 -0 1 2 2 1 1 -0 -1 -1 -0 0 -0 1 2 0 -0 -3 -3 -2 -1 0 -1 -2 -3 -4 -5 -5 -5 -5 -5 -5
-2 -1 -1 -1 -1 -1 -2 -2 -2 -2 -3 -3 -5 -0 1 1 1 1 1 1 -1 -0 1 1 1 2 1 1 -1 -4 -4 -4 -3 -2 -3 -4 -5 -6 -6 -6 -6 -6 -6 -7
-1 -1 -1 -1 -1 -1 -2 -1 -1 -1 -2 -3 -3 -3 1 1 1 1 0 0 0 0 0 0 1 -1 -1 -2 -2 -4 -5 -4 -4 -3 -3 -4 -5 -6 -6 -6 -6 -6 -8 -8
-1 -1 -1 -1 -1 -1 -2 -1 -1 -2 -3 -2 -2 -3 -1 0 0 0 0 0 0 1 1 1 1 -2 -2 -3 -5 -6 -6 -5 -5 -5 -5 -6 -6 -6 -7 -8 -8 -9 -10 -9
-1 -1 -1 -1 -1 -1 -2 -2 -1 -2 -2 -3 -2 -2 -3 -0 0 0 0 1 -2 1 1 1 -1 -3 -5 -5 -6 -7 -7 -7 -6 -6 -6 -6 -7 -8 -8 -9 -9 -10 -11 -11
-1 -1 -1 -2 -1 -1 -1 -2 -2 -2 -2 -2 -3 -1 -2 0 -1 -1 -1 0 1 1 1 -2 -3 -6 -7 -7 -8 -9 -8 -8 -6 -6 -7 -8 -9 -10 -10 -11 -11 -10 -11 -11
-1 -1 -1 -1 -1 -1 -1 -2 -2 -2 -2 -2 -2 -1 -2 0 0 0 -0 0 1 2 1 0 -3 -6 -6 -8 -9 -9 -9 -9 -8 -9 -9 -9 -9 -11 -11 -12 -11 -11 -11 -11
-1 -0 -1 -1 -1 -1 -1 -2 -2 -2 -1 -1 -2 -1 1 -0 -0 -0 0 0 0 1 -1 -2 -6 -7 -8 -9 -10 -10 -9 -10 -10 -10 -10 -10 -10 -10 -10 -10 -10 -10 -11 -11
-1 -1 -1 -1 -1 -1 -3 -1 -1 -2 -1 -1 -1 -0 0 -0 -0 -0 0 1 1 -2 -5 -5 -8 -8 -9 -9 -10 -11 -10 -10 -10 -10 -10 -10 -10 -10 -10 -10 -10 -10 -10 -11
-1 -2 -2 -2 -2 -5 -4 -3 -5 -1 1 0 0 -0 -0 -1 -0 -1 -3 -3 -1 -2 -4 -5 -9 -9 -9 -9 -9 -9 -9 -9 -9 -10 -10 -9 -9 -10 -10 -10 -11 -11 -11 -11
-3 -2 -3 -7 -4 -4 -3 -2 -1 -1 -0 1 -0 -1 -1 -3 -3 -3 -2 -1 -2 -5 -6 -12 -9 -9 -8 -9 -9 -10 -10 -9 -9 -9 -10 -10 -10 -10 -10 -11 -12 -12 -12 -13
-3 -4 -6 -5 -4 -4 -3 -2 -2 -1 -0 -0 -1 -3 -4 -4 -3 -2 -3 -3 -5 -9 -15 -10 -8 -8 -9 -10 -10 -11 -11 -11 -11 -11 -11 -11 -11 -11 -11 -11 -12 -12 -12 -13
-5 -7 -6 -5 -5 -5 -4 -3 -3 -1 -1 -3 -4 -4 -3 -4 -5 -6 -8 -8 -12 -11 -10 -9 -9 -10 -10 -10 -10 -11 -11 -11 -11 -11 -12 -12 -12 -12 -13 -13 -13 -13 -14 -14